Radioactive Concentration measured by Seawater Radiation Monitor near Fukushima Daiichi Nuclear Power Station
Date,Time,Cs137(Bq/L),Cs134(Bq/L),Total β(Bq/L)
2020/04/21,00:00,-,-,53
2020/04/21,00:10,-,-,52
2020/04/21,00:20,-,-,49
2020/04/21,00:30,-,-,46
2020/04/21,00:40,-,-,43
2020/04/21,00:50,-,-,42
2020/04/21,01:00,-,-,43
2020/04/21,01:10,-,-,44
2020/04/21,01:20,-,-,46
2020/04/21,01:30,-,-,46
2020/04/21,01:40,-,-,48
2020/04/21,01:50,-,-,49
2020/04/21,02:00,-,-,50
2020/04/21,02:10,-,-,49
2020/04/21,02:20,-,-,49
2020/04/21,02:30,-,-,50
2020/04/21,02:40,-,-,48
2020/04/21,02:50,-,-,50
2020/04/21,03:00,-,-,51
2020/04/21,03:10,-,-,53
2020/04/21,03:20,-,-,50
2020/04/21,03:30,-,-,50
2020/04/21,03:40,-,-,53
2020/04/21,03:50,-,-,52
2020/04/21,04:00,-,-,49
2020/04/21,04:10,-,-,47
2020/04/21,04:20,-,-,44
2020/04/21,04:30,-,-,46
2020/04/21,04:40,-,-,46
2020/04/21,04:50,-,-,47
2020/04/21,05:00,-,-,48
2020/04/21,05:10,-,-,49
2020/04/21,05:20,-,-,52
2020/04/21,05:30,-,-,53
2020/04/21,05:40,-,-,51
2020/04/21,05:50,-,-,51
2020/04/21,06:00,-,-,50
2020/04/21,06:10,-,-,50
2020/04/21,06:20,-,-,51
2020/04/21,06:30,-,-,50
2020/04/21,06:40,-,-,50
2020/04/21,06:50,-,-,49
2020/04/21,07:00,-,-,51
2020/04/21,07:10,-,-,52
2020/04/21,07:20,-,-,50
2020/04/21,07:30,-,-,49
2020/04/21,07:40,-,-,51
2020/04/21,07:50,-,-,52
2020/04/21,08:00,-,-,50
2020/04/21,08:10,-,-,51
2020/04/21,08:20,-,-,54
2020/04/21,08:30,-,-,54
2020/04/21,08:40,-,-,53
2020/04/21,08:50,-,-,52
2020/04/21,09:00,-,-,53
2020/04/21,09:10,-,-,51
2020/04/21,09:20,-,-,52
2020/04/21,09:30,-,-,52
2020/04/21,09:40,-,-,50
2020/04/21,09:50,-,-,48
2020/04/21,10:00,-,-,50
2020/04/21,10:10,-,-,48
2020/04/21,10:20,-,-,46
2020/04/21,10:30,-,-,44
2020/04/21,10:40,-,-,47
2020/04/21,10:50,-,-,51
2020/04/21,11:00,-,-,51
2020/04/21,11:10,-,-,51
2020/04/21,11:20,-,-,52
2020/04/21,11:30,-,-,54
2020/04/21,11:40,-,-,54
2020/04/21,11:50,-,-,53
2020/04/21,12:00,-,-,52
2020/04/21,12:10,-,-,55
2020/04/21,12:20,-,-,56
2020/04/21,12:30,-,-,56
2020/04/21,12:40,-,-,55
2020/04/21,12:50,-,-,56
2020/04/21,13:00,-,-,57
2020/04/21,13:10,-,-,53
2020/04/21,13:20,-,-,52
2020/04/21,13:30,-,-,51
2020/04/21,13:40,-,-,53
2020/04/21,13:50,-,-,54
2020/04/21,14:00,-,-,51
2020/04/21,14:10,-,-,52
2020/04/21,14:20,-,-,53
2020/04/21,14:30,-,-,54
2020/04/21,14:40,-,-,51
2020/04/21,14:50,-,-,50
2020/04/21,15:00,-,-,51
2020/04/21,15:10,-,-,50
2020/04/21,15:20,-,-,50
2020/04/21,15:30,-,-,46
2020/04/21,15:40,-,-,49
2020/04/21,15:50,-,-,49
2020/04/21,16:00,-,-,49
2020/04/21,16:10,-,-,51
2020/04/21,16:20,-,-,51
2020/04/21,16:30,-,-,53
2020/04/21,16:40,-,-,51
2020/04/21,16:50,-,-,52
2020/04/21,17:00,-,-,52
2020/04/21,17:10,-,-,52
2020/04/21,17:20,-,-,48
2020/04/21,17:30,-,-,47
2020/04/21,17:40,-,-,47
2020/04/21,17:50,-,-,48
2020/04/21,18:00,-,-,44
2020/04/21,18:10,-,-,43
2020/04/21,18:20,-,-,45
2020/04/21,18:30,-,-,48
2020/04/21,18:40,-,-,49
2020/04/21,18:50,-,-,50
2020/04/21,19:00,-,-,54
2020/04/21,19:10,-,-,57
2020/04/21,19:20,-,-,59
2020/04/21,19:30,-,-,58
2020/04/21,19:40,-,-,58
2020/04/21,19:50,-,-,57
2020/04/21,20:00,-,-,58
2020/04/21,20:10,-,-,55
2020/04/21,20:20,-,-,53
2020/04/21,20:30,-,-,50
2020/04/21,20:40,-,-,52
2020/04/21,20:50,-,-,50
2020/04/21,21:00,-,-,46
2020/04/21,21:10,-,-,45
2020/04/21,21:20,-,-,47
2020/04/21,21:30,-,-,50
2020/04/21,21:40,-,-,50
2020/04/21,21:50,-,-,50
2020/04/21,22:00,-,-,51
2020/04/21,22:10,-,-,52
2020/04/21,22:20,-,-,53
2020/04/21,22:30,-,-,53
2020/04/21,22:40,-,-,55
2020/04/21,22:50,-,-,57
2020/04/21,23:00,-,-,56
2020/04/21,23:10,-,-,57
2020/04/21,23:20,-,-,57
2020/04/21,23:30,-,-,56
2020/04/21,23:40,-,-,52
2020/04/21,23:50,-,-,52
